Location: Gallinara
(44.0333°N, 8.2333°E)
Time: 06:41:04
(UTC+00:00)

CZ-2D R/B - Pass Details

Date: 25 September 2020
Orbit: 791 x 846 km, 98.7° (Epoch: 23 October)

Event Time Altitude Azimuth Distance (km) Brightness Sun altitude
Rises 01:29:35 0° 10° (N) 3,338 6.0 -38.1°
Reaches altitude 10° 01:31:58 10° 7° (N) 2,395 5.1 -37.8°
Enters shadow 01:33:36 20° 3° (N) 1,774 4.2 -37.6°
